Hourly Data Report for October 17, 2020

VICTORIA UNIVERSITY CS
BRITISH COLUMBIA
Current Station Operator: ECCC - MSC

48°27'25.200" N
123°18'16.600" W
60.10 m
1018598
71783
WYJ

Download Data

Hourly Data (October 2020)
Hourly Data Report for October 17, 2020
TIME
LST
Temp Definition
°C
Dew Point Definition
°C
Rel Hum Definition
%
Precip. Amount Definition
mm

Wind Dir Definition
10's deg

Wind Spd Definition
km/h
Visibility Definition
km
Stn Press Definition
kPa
Hmdx Definition


Wind Chill Definition


Weather Definition


00:00 11.8 9.8 88 0.0 27 4   101.15     LegendNANA
01:00 11.0 9.7 92 0.0 25 4   101.20     LegendNANA
02:00 11.0 9.7 92 0.0 24 3   101.21     LegendNANA
03:00 11.1 9.5 90 0.0 27 4   101.22     LegendNANA
04:00 11.2 10.2 94 0.0 2 3   101.20     LegendNANA
05:00 11.2 9.4 88 0.0 36 7   101.28     LegendNANA
06:00 11.0 8.4 84 0.0 2 5   101.27     LegendNANA
07:00 11.0 8.6 85 0.0 32 4   101.36     LegendNANA
08:00 11.2 8.6 84 0.0 33 1   101.36     LegendNANA
09:00 12.1 8.9 81 0.0 0 1   101.41     LegendNANA
10:00 12.1 9.3 83 0.0 10 2   101.43     LegendNANA
11:00 11.9 9.6 86 0.0 16 4   101.44     LegendNANA
12:00 12.2 10.0 86 0.0 19 3   101.44     LegendNANA
13:00 13.0 9.4 79 0.0 19 3   101.46     LegendNANA
14:00 13.5 9.2 75 0.0 24 5   101.44     LegendNANA
15:00 12.6 8.7 77 0.0 24 6   101.41     LegendNANA
16:00 12.1 8.3 77 0.0 25 5   101.41     LegendNANA
17:00 11.2 7.5 78 0.0 24 6   101.39     LegendNANA
18:00 10.8 7.6 80 0.0 25 5   101.41     LegendNANA
19:00 10.3 7.0 80 0.0 27 6   101.36     LegendNANA
20:00 10.2 6.7 79 0.0 24 4   101.32     LegendNANA
21:00 10.1 7.0 81 0.0 21 5   101.22     LegendNANA
22:00 10.1 8.2 88 0.0 17 3   101.19     LegendNANA
23:00 9.7 9.1 96 0.2 23 2   101.14     LegendNANA

Notes on Data Quality.

Legend

  • E = Estimated
  • M = Missing
  • NA = Not Available*
  • [empty] = Indicates an unobserved value
Date modified: